Погода в Дандолке

Ирландия     54°00′14″N   6°23′08″W
темп.,
°C
ветер,
м/с
пор.,
м/с
влажн.,
%
обл.,
%
осадки,
мм/ч
давл.,
гПа
погр.,
м
17 мая, пн
пн1701:00+4ссз359432 0.3 100390
04:00+3сз349514 0.0 100475
07:00+5зсз279442 0.0 1006208
10:00+11зсз466787 0.0 10071169
13:00+11зсз456995 0.1 10081072
16:00+12з456842 0.4 10071112
19:00+11з358592 1.7 1008514
22:00+6зсз229133 0.8 100931
18 мая, вт
вт1801:00+5з229119 0.8 101023
04:00+3з22934 0.0 101019
07:00+5зюз13934 0.0 101194
10:00+10зюз348355 0.1 1012756
13:00+12зюз337524 2.3 10121080
16:00+12зюз237679 2.8 1012916
19:00+12зсз348447 4.2 1013683
22:00+6сз33904 0.9 101439
19 мая, ср
ср1901:00+5сз359316 0.9 101672
04:00+4зсз239212 0.0 101632
07:00+5з24935 0.0 1018121
10:00+10з34775 0.0 1019866
13:00+14з455618 0.1 10191719
16:00+14з666831 0.3 10191251
19:00+12з478228 1.2 1020676
22:00+8зсз239186 0.3 102140
20 мая, чт
чт2001:00+6з2294100 0.3 102120
04:00+5юз1194100 0.0 102115
07:00+6ююв2292100 0.0 102091
10:00+10ююв4778100 0.0 1018631
13:00+9юв71396100 1.9 1015938
16:00+10ююв71496100 2.3 1010892
19:00+11ю61396100 2.4 10061062
22:00+11ююз8149271 0.1 1004840
21 мая, пт
пт2101:00+8ю7149045 0.2 1002859
04:00+11ю91560100 0.0 9981531
07:00+8ю81585100 0.3 9951419
10:00+10ю81389100 0.6 9911290
13:00+12ю9138385 1.3 9881390
16:00+10ю71293100 2.2 985864
19:00+9ююв61296100 6.7 982804
22:00+9вюв2497100 2.5 982143